Date,TemperatureHighF,TemperatureAvgF,TemperatureLowF,DewpointHighF,DewpointAvgF,DewpointLowF,HumidityHigh,HumidityAvg,HumidityLow,PressureMaxIn,PressureMinIn,WindSpeedMaxMPH,WindSpeedAvgMPH,GustSpeedMaxMPH,PrecipitationSumIn
2013-10-1,78.1,67.6,61.0,62.8,58.8,52.4,92,75,44,29.93,29.81,7,1,14,0.00
2013-10-2,76.5,68.6,59.9,64.0,60.9,57.0,90,77,59,30.00,29.81,9,2,16,0.00
2013-10-3,80.2,63.8,48.0,58.4,50.5,42.0,94,67,28,30.04,29.92,4,0,6,0.01
2013-10-4,77.0,67.3,62.1,69.9,64.1,56.0,96,90,73,29.98,29.89,6,1,12,0.54
2013-10-5,67.3,62.7,61.0,62.6,60.1,57.0,96,91,84,30.00,29.92,7,2,10,0.26
2013-10-6,85.1,72.0,60.6,73.8,65.6,58.1,96,82,57,29.92,29.62,7,2,13,0.68
2013-10-7,75.6,60.7,51.1,65.6,54.9,44.8,95,82,62,29.95,29.53,11,3,20,0.54
2013-10-8,69.4,55.9,48.0,50.7,46.7,42.5,94,74,41,30.25,29.95,7,1,11,0.01
2013-10-9,75.9,58.1,47.8,50.2,45.5,40.8,87,66,30,30.29,30.17,7,1,10,0.00
2013-10-10,74.7,58.2,45.7,48.3,42.4,35.0,84,59,26,30.18,30.04,7,1,9,0.00
2013-10-11,78.3,58.6,47.1,53.9,46.7,41.8,92,69,32,30.06,30.01,7,1,10,0.00
2013-10-12,80.8,62.8,45.9,50.9,44.4,35.1,94,57,23,30.09,30.02,8,1,12,0.00
2013-10-13,71.1,65.0,59.2,64.2,55.0,40.8,94,71,45,30.17,30.08,5,1,11,0.13
2013-10-14,67.8,58.7,48.0,61.6,52.6,45.2,95,82,56,30.25,30.15,10,1,15,0.04
2013-10-15,71.4,58.3,43.7,57.4,51.6,41.7,95,80,55,30.19,29.84,7,1,13,0.00
2013-10-16,71.4,64.1,57.4,61.0,56.1,51.4,93,76,64,29.85,29.66,8,2,14,0.22
2013-10-17,66.9,57.2,52.0,54.0,50.8,48.1,94,80,55,29.78,29.55,5,0,8,0.46
2013-10-18,59.7,53.7,50.2,52.6,45.3,37.9,95,75,47,29.80,29.62,12,2,18,0.07
2013-10-19,64.6,55.2,44.4,50.8,44.6,39.8,93,69,45,29.79,29.52,13,2,19,0.11
2013-10-20,54.3,47.8,42.4,46.3,42.3,39.1,90,81,65,29.87,29.64,8,2,12,0.01
2013-10-21,68.5,57.9,46.8,50.4,39.9,35.4,89,54,31,29.87,29.68,10,3,17,0.04
2013-10-22,52.5,46.4,40.6,50.2,37.2,28.2,93,71,51,29.73,29.62,13,3,20,0.18
2013-10-23,46.9,42.5,37.2,41.9,36.7,30.8,90,80,64,29.72,29.58,10,1,14,0.05
2013-10-24,50.2,41.1,35.6,38.1,33.4,28.5,92,75,48,29.91,29.67,11,3,17,0.04
2013-10-25,52.0,42.6,37.6,41.8,37.9,34.6,96,84,56,30.07,29.91,10,2,15,0.34
2013-10-26,46.2,42.5,39.7,38.8,33.3,27.1,93,71,50,30.01,29.66,22,6,23,0.09
2013-10-27,49.8,43.5,37.9,40.9,37.0,33.0,94,79,58,29.94,29.69,8,1,13,0.01
2013-10-28,55.8,44.2,30.6,40.8,33.0,22.0,86,66,31,30.27,29.91,11,1,17,0.00
2013-10-29,56.5,41.4,29.1,34.7,29.4,25.7,89,65,35,30.34,30.17,6,1,9,0.00
2013-10-30,67.1,50.2,39.4,43.5,39.3,34.7,89,69,36,30.17,29.98,6,1,8,0.01
2013-10-31,70.3,60.1,46.0,60.4,53.1,40.1,94,78,61,29.98,29.25,12,4,20,0.47